www.pogodaiklimat.ru
ПОГОДА в Жешуве

Архив погоды в Жешуве (Польша)

Время
(UTC), дата
04 19.06
05 19.06
06 19.06
07 19.06
08 19.06
09 19.06
10 19.06
11 19.06
12 19.06
13 19.06
14 19.06
15 19.06
16 19.06
17 19.06
18 19.06
20 19.06
21 19.06
22 19.06
23 19.06
00 20.06
01 20.06
02 20.06
03 20.06
04 20.06
05 20.06
06 20.06
07 20.06
08 20.06
09 20.06
10 20.06
11 20.06
12 20.06
13 20.06
14 20.06
15 20.06
16 20.06
17 20.06
18 20.06
19 20.06
20 20.06
21 20.06
22 20.06
23 20.06
00 21.06
01 21.06
02 21.06
03 21.06
04 21.06
05 21.06
06 21.06
07 21.06
08 21.06
09 21.06
10 21.06
11 21.06
12 21.06
13 21.06
14 21.06
15 21.06
16 21.06
17 21.06
18 21.06
19 21.06
20 21.06
21 21.06
22 21.06
23 21.06
00 22.06
01 22.06
02 22.06
03 22.06
04 22.06
05 22.06
06 22.06
07 22.06
08 22.06
09 22.06
10 22.06
11 22.06
12 22.06
13 22.06
14 22.06
15 22.06
16 22.06
17 22.06
18 22.06
19 22.06
20 22.06
21 22.06
22 22.06
23 22.06
00 23.06
01 23.06
02 23.06
03 23.06
04 23.06
05 23.06
06 23.06
07 23.06
08 23.06
09 23.06
10 23.06
11 23.06
12 23.06
13 23.06
14 23.06
15 23.06
16 23.06
17 23.06
18 23.06
19 23.06
20 23.06
21 23.06
22 23.06
23 23.06
00 24.06
01 24.06
02 24.06
03 24.06
04 24.06
05 24.06
06 24.06
07 24.06
08 24.06
09 24.06
10 24.06
11 24.06
12 24.06
13 24.06
14 24.06
15 24.06
16 24.06
17 24.06
18 24.06
19 24.06
20 24.06
21 24.06
22 24.06
23 24.06
00 25.06
01 25.06
02 25.06
03 25.06
04 25.06
05 25.06
06 25.06
07 25.06
08 25.06
09 25.06
10 25.06
11 25.06
12 25.06
13 25.06
14 25.06
15 25.06
16 25.06
17 25.06
18 25.06
19 25.06
20 25.06
21 25.06
22 25.06
23 25.06
00 26.06
01 26.06
02 26.06
03 26.06
Ветер
(напр.,м/с)
Видим. Явления Облачность Т
(С)
Тd
(С)
f
(%)
Тe
(С)
Тes
(С)
Комфортность P
(гПа)
Po
(гПа)
Тmin
(С)
Tmax
(С)
R
(мм)
R24
(мм)
S
(см)
ЮЗ 1 30 км ясно +16.4 +12.0 75 +17 +19 1018.0 992.2
ЮЗ 2 30 км ясно +19.1 +13.1 68 +21 +24 комфорт 1017.7 992.2
Ю 5-10
{10}
30 км ясно +21.8 +12.1 54 +24 +27 комфорт 1017.0 991.7 +13.8 +23.9
Ю 4 30 км ясно +24.0 +13.5 52 +26 +33 жарко 1016.5 991.4
Ю 5 30 км ясно +25.5 +13.7 48 +28 +35 жарко 1016.1 991.2
Ю 5
{9}
30 км ясно +27.0 +13.4 43 +29 +37 жарко 1015.9 991.1
Ю 5 30 км ясно +27.8 +13.0 40 +29 +39 жарко 1015.3 990.6
Ю 7-12
{12}
30 км ясно +28.9 +12.7 37 +30 +35 жарко 1014.8 990.2
Ю 6
{12}
30 км ясно +29.6 +13.8 38 +31 +38 жарко 1014.4 989.8
Ю 5
{11}
30 км ясно +30.2 +15.1 40 +33 +40 душно 1013.8 989.3
Ю 6 30 км ясно +29.7 +13.9 38 +31 +35 жарко 1012.9 988.4
Ю 5
{11}
30 км ясно +29.7 +13.5 37 +31 +35 жарко 1012.2 987.7
Ю 6 30 км ясно +29.1 +13.3 38 +31 +32 жарко 1011.6 987.1
Ю 5 30 км ясно +28.2 +12.5 38 +30 +30 жарко 1011.2 986.6
Ю 4
{11}
30 км ясно +26.4 +13.2 44 +28 +28 жарко 1010.9 986.2 +21.8 +30.2
Ю 5 30 км ясно +24.3 +11.9 46 +26 +26 жарко 1010.9 986.0
Ю 4
{8}
30 км ясно +22.8 +11.8 50 +25 +25 комфорт 1010.8 985.8
Ю 3
{9}
30 км ясно +22.5 +10.9 48 +25 +25 комфорт 1011.0 985.9
З 2 30 км ясно +21.5 +10.3 49 +23 +23 комфорт 1011.1 986.0
ЮЗ 3
{9}
30 км ясно +21.5 +10.3 49 +23 +23 комфорт 1011.1 986.0
ЮЗ 4 30 км ясно +19.7 +10.4 55 +21 +21 комфорт 1011.0 985.7
Ю 3 30 км ясно +19.0 +10.3 57 +20 +20 1010.6 985.3
ЮЗ 2 30 км ясно +18.1 +10.5 61 +19 +19 1010.5 985.1
ЮЗ 3 30 км ясно +20.5 +11.7 57 +23 +24 комфорт 1010.0 984.8
ЮЗ 3 30 км ясно +23.1 +12.4 51 +26 +28 жарко 1010.1 985.1
ЮЗ 4 30 км ясно +25.0 +12.6 46 +27 +31 жарко 1010.0 985.2 +17.8 +26.5
ЮЗ 5 30 км ясно +26.1 +12.2 42 +28 +33 жарко 1009.9 985.2
ЮЗ 5 30 км ясно +27.1 +12.7 41 +29 +36 жарко 1009.7 985.1
ЮЗ 3 30 км ясно +27.8 +13.0 40 +29 +43 жарко 1009.1 984.5
ЮЗ 2
{8}
30 км ясно +29.0 +14.4 41 +31 +49 жарко 1008.3 983.8
Ю 4 30 км ясно +30.1 +13.4 36 +32 +43 жарко 1007.2 982.9
ЮЗ 4
{8}
30 км ясно +31.2 +13.0 33 +32 +43 жарко 1006.9 982.7
ЮЗ 4 30 км 1/0
[Ci fib]
+31.4 +13.6 34 +33 +42 жарко 1006.5 982.3
Ю 6 30 км 3/0
[Ci sp]
+30.8 +13.1 34 +32 +36 жарко 1006.0 981.7
ЮЗ 4 30 км 6/0
[Ac trans Ci sp]
+31.1 +14.7 37 +33 +37 душно 1005.7 981.5
ЮЗ 2 30 км 9/0
[Ac trans Ci sp]
+30.1 +15.0 40 +32 +35 жарко 1005.7 981.4
З 4 30 км 9/1 1500 м
[Cu med, cong Ac trans Ci sp]
+28.0 +15.6 47 +31 +31 душно 1006.3 981.8
З 3
{14}
30 км 9/1 1500 м
[Sc Ac trans Ci sp]
+25.7 +14.2 49 +28 +28 жарко 1006.5 981.8 +25.0 +31.8
СЗ 1 30 км гроза, ливневой дождь 9/9 450 м
[Cb cap]
+23.7 +15.5 60 +27 +27 жарко 1006.4 981.6
ЮЗ 3 30 км слаб. ливневой дождь, в посл. час гроза 9/9 1500 м
[Cb cap]
+21.3 +17.1 77 +25 +25 комфорт 1007.8 982.7
ЮЗ 3 30 км в посл. час ливневой дождь {гроза} 9/5 1500 м
[Cb calv Ac As]
+19.6 +17.0 85 +22 +22 комфорт 1007.5 982.3
ЮЗ 4 30 км в посл. час ливневой дождь 9/3 1500 м
[Cb calv Ac As]
+19.9 +16.7 82 +23 +23 комфорт 1007.5 982.3
З 4 30 км в посл. час ливневой дождь 9/5 600 м
[Cb calv Ac As]
+19.6 +16.8 84 +22 +22 комфорт 1007.6 982.4
З 6-12
{12}
30 км {гроза, ливн. дождь} 9/9 450 м
[Sc]
+19.7 +16.5 82 +22 +22 комфорт 1007.4 982.2 0.3
З 7-13
{13}
20 км слаб. ливневой дождь 9/9 600 м
[Cb calv]
+17.6 +14.5 82 +17 +17 1008.1 982.7
З 7 30 км в посл. час ливневой дождь 9/9 480 м
[Cb calv]
+15.7 +12.6 82 +14 +14 1008.6 983.0
З 8
{15}
30 км {ливн. дождь} 9/9 600 м
[Sc]
+14.5 +9.1 70 +12 +12 1009.3 983.6
З 7
{13}
30 км 9/9 600 м
[Cu Sc]
+14.1 +9.1 72 +12 +12 1010.0 984.2
З 8 30 км 6/6 600 м
[Cu Sc]
+14.5 +8.4 67 +12 +12 1010.3 984.6
З 9
{15}
30 км {ливн. дождь} 4/4 600 м
[Cu med, cong]
+15.5 +8.5 63 +14 +14 1010.3 984.7 +13.9 +25.7 0.5 0.5
З 6-12
{13}
30 км 8/8 600 м
[Cu med, cong]
+16.0 +7.5 57 +15 +16 1010.2 984.6
З 9
{14}
30 км 8/8 1000 м
[Cu med, cong]
+16.5 +6.9 53 +15 +15 1010.2 984.7
З 11-17
{17}
30 км 9/6 1000 м
[Cu med, cong Ac trans]
+17.1 +6.9 51 +15 +15 1010.2 984.7
З 10
{17}
30 км 9/9 1000 м
[Cu med, cong]
+16.4 +5.6 49 +15 +15 1010.5 984.9
З 10-15
{15}
30 км 9/9 1000 м
[Cu med, cong]
+17.3 +5.9 47 +16 +16 1010.6 985.1
З 9-14
{17}
30 км 9/9 1000 м
[Cu med, cong]
+17.0 +6.2 49 +16 +16 1010.9 985.4
З 10-16
{18}
30 км в посл. час ливневой дождь 9/9 1000 м
[Cb calv]
+15.8 +7.3 57 +14 +14 1011.0 985.4
З 11-16
{16}
30 км 8/8 1000 м
[Cu Sc]
+17.8 +8.4 54 +16 +16 1010.4 985.0
З 10-15
{18}
30 км {ливн. дождь} 9/9 1000 м
[Cb calv]
+17.2 +7.0 51 +16 +16 1010.4 984.9
З 8
{15}
30 км в посл. час ливневой дождь 6/6 1000 м
[Cu med, cong]
+18.0 +8.0 52 +17 +17 1010.3 984.9
З 8
{13}
30 км 8/8 1000 м
[Cu Sc]
+17.3 +6.5 49 +16 +16 1010.4 984.9
З 6
{18}
30 км {ливн. дождь} 8/8 2000 м
[Sc]
+16.9 +6.1 49 +16 +16 1010.5 985.0 +14.7 +18.4 0.1
З 8
{11}
30 км 9/9 1000 м
[Sc]
+16.5 +6.9 53 +15 +15 1011.0 985.4
З 5
{12}
30 км 9/9 1500 м
[Sc]
+15.8 +6.8 55 +15 +15 1011.3 985.7
З 4
{12}
30 км ясно +13.8 +7.3 65 +12 +12 1011.5 985.7
З 5 30 км 6/0
[Ac und]
+13.3 +8.1 71 +11 +11 1011.5 985.6
З 4 30 км 6/4 1000 м
[Sc Ac trans]
+11.7 +8.4 80 +10 +10 1011.4 985.4
З 5
{12}
30 км 8/8 1000 м
[Sc]
+13.5 +9.0 74 +12 +12 1011.5 985.7
З 4 30 км 3/3 1000 м
[Sc]
+12.5 +9.1 80 +11 +11 1011.6 985.7
З 4 30 км 1/0
[Ac trans]
+12.0 +9.0 82 +10 +10 1011.8 985.8
З 5 30 км 1/0
[Ac trans]
+10.0 +8.6 91 +7 +7 1012.2 986.0
З 6 30 км 1/0
[Ac trans]
+11.7 +9.4 86 +9 +9 1012.4 986.4
З 6 30 км 3/1 400 м
[Cu hum Ac trans]
+14.1 +9.5 74 +12 +13 1012.8 987.0
СЗ 6
{11}
30 км 3/3 600 м
[Cu hum]
+15.4 +9.1 66 +14 +16 1012.8 987.1 +9.7 +16.9 0.1
СЗ 6
{10}
30 км 3/3 600 м
[Cu hum]
+16.7 +8.9 60 +16 +18 1012.6 987.0
СЗ 6 30 км 3/3 1000 м
[Cu hum]
+19.0 +8.9 52 +19 +23 1012.5 987.1
СЗ 6-11
{11}
30 км 3/3 1000 м
[Cu hum]
+19.9 +8.2 47 +21 +25 комфорт 1012.2 986.9
З 7
{11}
30 км 4/4 1000 м
[Cu med, cong]
+21.0 +8.3 44 +22 +25 комфорт 1011.9 986.7
З 6-12
{13}
30 км 4/4 1500 м
[Cu med, cong]
+21.6 +8.5 43 +23 +27 комфорт 1011.6 986.5
СЗ 6
{13}
30 км 4/4 1500 м
[Cu med, cong]
+22.5 +7.1 37 +23 +27 комфорт 1011.5 986.4
С 6
{11}
30 км 4/4 1500 м
[Cu med, cong]
+23.5 +7.1 35 +24 +27 комфорт 1011.4 986.4
З 6 30 км 4/4 2000 м
[Cu med, cong]
+23.9 +7.5 35 +24 +27 комфорт 1011.3 986.4
СЗ 4-9
{11}
30 км 4/4 2000 м
[Cu med, cong]
+23.1 +6.8 35 +24 +26 комфорт 1011.4 986.4
СЗ 4
{9}
30 км 3/3 2000 м
[Cu med, cong]
+22.9 +6.6 35 +24 +25 комфорт 1011.4 986.4
СЗ 4 30 км 3/3 2000 м
[Cu hum Ci sp]
+22.4 +6.6 36 +23 +24 комфорт 1011.4 986.3
С 3
{11}
30 км 5/1 2000 м
[Sc diur, vesp Ci sp]
+20.4 +7.0 42 +22 +22 комфорт 1011.6 986.4 +15.4 +24.2
СЗ 2 30 км 5/1 2000 м
[Sc diur, vesp Ci sp]
+18.5 +7.3 48 +19 +19 1012.4 987.0
СЗ 1 30 км 3/0
[Ci sp]
+16.3 +7.5 56 +17 +17 1013.0 987.4
З 1 30 км 3/0
[Ci sp]
+13.7 +7.9 68 +14 +14 1013.8 987.9
ЮЗ 1 30 км 4/0
[Ci sp]
+12.8 +8.9 77 +13 +13 1014.1 988.1
ЮЗ 2 30 км 3/0
[Ci sp]
+10.9 +8.8 87 +10 +10 1014.1 988.0
ЮЗ 2 30 км 4/0
[Ci sp]
+9.7 +8.0 89 +8 +8 1014.3 988.0
З 3 30 км 4/0
[Ci sp]
+10.2 +8.5 89 +8 +8 1014.0 987.8
ЮЗ 2 30 км 4/0
[Ci sp]
+9.6 +8.4 92 +8 +8 1014.1 987.8
ЮЗ 2 30 км 3/0
[Ci sp]
+9.3 +8.2 93 +7 +8 1014.6 988.3
ЮЗ 2 30 км 1/0
[Ci sp]
+12.2 +10.1 87 +11 +12 1015.0 988.9
З 2 30 км 1/0
[Ci sp]
+14.8 +9.6 71 +15 +18 1015.4 989.6
З 1 30 км 3/0
[Ac trans Ci sp]
+17.7 +10.6 63 +19 +25 1015.7 990.1 +8.9 +20.4
ЮВ 1 30 км 5/1 1000 м
[Cu hum Ac cast Ci sp]
+20.8 +10.0 50 +24 +32 комфорт 1015.6 990.3
СЗ 2 30 км 5/1 1000 м
[Cu med, cong Ac cast Ci sp]
+21.6 +9.5 46 +23 +32 комфорт 1015.9 990.6
З 3 30 км 8/5 1000 м
[Cu med, cong Ac cast Ci sp]
+21.6 +9.5 46 +23 +28 комфорт 1015.9 990.6
С 3 30 км 8/5 1500 м
[Cu med, cong Ac cast Ci sp]
+23.1 +8.8 40 +24 +30 комфорт 1015.6 990.5
СВ 4 30 км 6/5 1500 м
[Cu med, cong Ci sp]
+23.9 +8.3 37 +24 +30 комфорт 1015.4 990.4
С 2 30 км 6/4 1500 м
[Cu med, cong Ci sp]
+24.6 +7.7 34 +25 +34 комфорт 1015.4 990.4
СЗ 3 30 км 6/4 1500 м
[Cu med, cong Ci sp]
+25.3 +6.9 31 +25 +31 комфорт 1015.1 990.2
СЗ 3 30 км 8/5 1500 м
[Cu med, cong Ci sp]
+24.5 +7.6 34 +25 +28 комфорт 1015.1 990.1
С 2 30 км 8/4 1500 м
[Cu med, cong Ci sp]
+25.1 +8.1 34 +25 +29 комфорт 1015.0 990.1
С 2 30 км 8/4 1500 м
[Cu med, cong Ci sp]
+23.7 +9.3 40 +25 +26 комфорт 1015.1 990.0
СВ 2 30 км 6/3 1500 м
[Cu med, cong Ci sp]
+23.4 +9.0 40 +25 +26 комфорт 1015.3 990.2
СВ 2 30 км 4/1 1500 м
[Cu hum Ci sp]
+22.0 +8.8 43 +23 +23 комфорт 1015.8 990.6 +17.6 +26.0
СВ 1 30 км 1/1 2000 м
[Sc]
+19.3 +9.8 54 +21 +21 комфорт 1016.7 991.2
С 2 30 км 1/1 2000 м
[Sc]
+16.7 +10.5 67 +17 +17 1017.2 991.5
З 1 30 км ясно +13.9 +9.9 77 +14 +14 1017.6 991.6
штиль 0 30 км ясно +13.0 +10.4 84 +13 +13 1017.4 991.4
штиль 0 30 км ясно +11.8 +10.0 89 +11 +11 1017.8 991.6
штиль 0 30 км ясно +10.7 +9.5 92 +10 +10 1017.8 991.5
З 1 30 км ясно +10.2 +9.1 93 +10 +10 1017.8 991.5
З 1 30 км ясно +9.4 +8.5 94 +9 +9 1017.7 991.3
штиль 0 30 км ясно +9.5 +8.6 94 +9 +9 1018.0 991.6
штиль 0 30 км ясно +12.6 +10.1 85 +12 +14 1018.0 991.9
Ю 1 30 км ясно +15.8 +11.4 75 +17 +20 1018.0 992.2
В 2 30 км ясно +19.0 +11.3 61 +20 +27 1017.8 992.3 +8.5 +22.1
В 3 30 км ясно +21.4 +12.0 55 +24 +32 комфорт 1017.6 992.3
В 3 30 км 1/1 1500 м
[Cu hum]
+23.3 +12.0 49 +26 +36 жарко 1017.2 992.1
В 4-9
{9}
30 км 3/3 1500 м
[Cu hum]
+24.5 +11.8 45 +26 +34 жарко 1016.7 991.7
В 5 30 км 1/1 1500 м
[Cu hum]
+24.6 +11.2 43 +26 +34 жарко 1016.3 991.3
В 5
{10}
30 км 1/1 1500 м
[Cu hum]
+26.0 +12.1 42 +27 +36 жарко 1015.6 990.7
В 5
{10}
30 км 4/4 1500 м
[Cu hum]
+26.9 +12.5 41 +28 +34 жарко 1015.1 990.3
ЮВ 6 30 км 4/4 1500 м
[Cu hum]
+26.4 +10.5 37 +27 +30 жарко 1014.6 989.8
В 5 30 км 3/3 1500 м
[Cu hum]
+26.8 +11.3 38 +28 +32 жарко 1014.4 989.6
В 5 30 км 1/1 1500 м
[Cu hum]
+25.9 +10.5 38 +27 +30 жарко 1014.0 989.2
В 5 30 км 1/1 1500 м
[Cu hum]
+26.0 +11.0 39 +27 +29 жарко 1013.7 988.9
В 5 30 км 1/0
[Ac trans]
+25.3 +10.7 40 +26 +27 жарко 1013.5 988.6
В 3 30 км 1/0
[Ac trans]
+22.9 +11.6 49 +25 +25 комфорт 1013.5 988.4 +19.0 +27.2
В 3 30 км 3/0
[Ac trans]
+21.5 +11.2 52 +23 +23 комфорт 1013.6 988.4
СВ 2 30 км 3/0
[Ac trans]
+18.7 +11.7 64 +20 +20 1014.2 988.7
СВ 2 30 км ясно +17.3 +11.6 69 +18 +18 1014.6 989.0
В 3 30 км ясно +17.3 +11.8 70 +17 +17 1014.3 988.7
СВ 2 30 км ясно +16.3 +11.4 73 +16 +16 1014.5 988.8
СВ 2 30 км ясно +14.8 +11.2 79 +15 +15 1014.5 988.7
В 2 30 км ясно +14.2 +10.8 80 +14 +14 1014.3 988.4
СВ 2 30 км 3/0
[Ac trans]
+13.4 +10.7 84 +13 +13 1014.4 988.5
СВ 1 30 км 3/0
[Ac trans Ci sp]
+13.5 +10.7 83 +14 +14 1014.5 988.6
В 2 30 км 1/0
[Ci sp]
+15.1 +11.9 81 +15 +16 1014.5 988.7
В 4 30 км 1/0
[Ci sp]
+17.5 +12.2 71 +17 +19 1014.5 988.9
В 4 30 км 3/0
[Ci sp]
+19.8 +13.0 65 +22 +25 комфорт 1014.4 989.0 +13.0 +22.9
В 5 30 км 3/0
[Ci sp]
+22.5 +13.6 57 +26 +30 жарко 1014.1 989.0
В 6 30 км 3/1 1000 м
[Cu hum Ci sp]
+24.6 +12.5 47 +26 +31 жарко 1013.9 988.9
В 7 30 км 3/1 1500 м
[Cu med, cong Ci sp]
+25.8 +12.3 43 +27 +31 жарко 1013.9 989.0
В 6 30 км 3/1 1500 м
[Cu med, cong Ci sp]
+26.6 +13.0 43 +28 +34 жарко 1013.7 988.9
ЮВ 5
{13}
30 км 3/1 1500 м
[Cu med, cong Ci sp]
+27.4 +11.4 37 +28 +36 жарко 1013.5 988.8
В 5
{13}
30 км 3/1 1500 м
[Cu med, cong Ci sp]
+27.7 +11.3 36 +29 +36 жарко 1013.2 988.5
В 5 30 км 3/1 1500 м
[Cu med, cong Ci fib]
+28.3 +10.9 34 +29 +35 жарко 1012.8 988.2
В 6
{11}
30 км 3/1 1500 м
[Cu med, cong Ci fib]
+28.7 +10.8 33 +29 +33 жарко 1012.7 988.1
В 7
{11}
30 км 3/1 1500 м
[Cu med, cong Ci fib]
+28.3 +9.1 30 +28 +30 жарко 1012.5 987.9
В 6 30 км 3/1 1500 м
[Cu med, cong Ci sp]
+28.0 +8.8 30 +28 +29 жарко 1012.3 987.7
В 4 30 км 5/1 1500 м
[Cu med, cong Ci sp]
+27.2 +9.5 33 +28 +28 жарко 1012.7 988.0
В 2
{11}
30 км 5/1 1500 м
[Cu med, cong Ci sp]
+25.2 +10.3 39 +26 +26 жарко 1013.0 988.1 +19.8 +29.0
В 2 30 км 5/0
[Ci sp]
+23.1 +10.8 46 +25 +25 комфорт 1013.8 988.7
СВ 3 30 км 4/0
[Ci sp]
+19.9 +11.9 60 +22 +22 комфорт 1014.5 989.1
СВ 3 30 км 4/0
[Ci sp]
+18.8 +11.4 62 +20 +20 1014.9 989.4
СВ 4 30 км ясно +19.5 +11.0 58 +21 +21 комфорт 1014.9 989.5
В 3 30 км ясно +18.1 +11.4 65 +18 +18 1015.2 989.7
В 4 30 км ясно +17.9 +11.5 66 +18 +18 1015.5 989.9
ЮВ 1 30 км ясно +15.4 +11.2 76 +16 +16 1016.0 990.2
В 1 30 км 3/0
[Ci sp]
+14.4 +11.4 82 +15 +15 1016.2 990.3
СВ 1 30 км 3/0
[Ci sp]
+14.2 +11.7 85 +15 +15 1016.3 990.4
Местоположение метеостанции Жешув (Польша): широта 50.10 долгота 22.05 высота над уровнем моря 201 м.
В архиве по умолчанию представлена погода в Жешуве за последнюю неделю. Архивные данные за месяц целиком и за предыдущие месяцы, начиная с января 2011 года, Вы можете получить, выбрав интересующий диапазон дат из раскрывающегося списка и нажав кнопку "Найти!".
*Определитесь, кто Вы:
Внимание! Время в таблицах - всемирное. Для получения местного времени необходимо прибавить поправку, которая равна 1 ч.
Смотрите также архив погоды в соседних городах и на ближайших метеорологических станциях:
Партнеры нашего сайта:      
Пояснения к столбцам:
  • Ветер - указаны скорость ветра в м/с - средняя за 10 мин, порывы в срок и между сроками (в фигурных скобках) и направление, откуда дует ветер: С - северный,
  • СВ - северо-восточный, В - восточный, ЮВ - юго-восточный, Ю - южный, ЮЗ - юго-западный, З - западный, СЗ - северо-западный.
  • Видимость - горизонтальная дальность видимости в метрах или километрах. При видимости от 1 до 10 км при отсутствии осадков обычно наблюдается дымка, при ухудшении видимости до 1 км и менее - туман. В сухую погоду видимость может ухудшаться дымом, пылью или мглою.
  • Явления - указаны атмосферные явления, наблюдавшиеся в срок или в последний час перед сроком; фигурными скобками обозначены явления, наблюдавшиеся между сроками (за 1-3 часа до срока); квадратными скобками обозначены град или гололедные отложения с указанием их диаметра в мм.
  • Облачность - указаны через наклонную черту общая и нижняя облачность в баллах и высота нижней границы облаков в метрах; квадратными скобками обозначены формы облаков: Ci - перистые, Cs - перисто-слоистые, Cc - перисто-кучевые, Ac - высококучевые, As - высокослоистые, Sc - слоисто-кучевые, Ns - слоисто-дождевые, Cu - кучевые, Cb - кучево-дождевые. Подробнее классификацию облаков см. в Атласе облаков (PDF).
  • T - Температура воздуха - температура, измеренная на высоте 2 м над землей.
  • Td - Температура точки росы - температура, при понижении до которой содержащийся в воздухе водяной пар достигнет насыщения.
  • f - Относительная влажность воздуха - влажноcть воздуха, измеренная на высоте 2 м над землей.
  • Te - Эффективная температура - температура, которую ощущает одетый по сезону человек в тени. Характеристика душности погоды. При расчете учитывается влияние влажности воздуха и скорости ветра на теплоощущения человека.
  • Tes - Эффективная температура на солнце - температура, которую ощущает человек, с поправкой на солнечный нагрев. Характеристика знойности погоды. Зависит от высоты солнца над горизонтом, облачности и скорости ветра. Ночью, в пасмурную погоду, а также при ветре 12 м/с и более поправка равна нулю.
  • P - Атмосферное давление - приведенное к уровню моря атмосферное давление.
  • Po - Атмосферное давление - измеренное на уровне метеостанции атмосферное давление.
  • Tmin - Минимальная температура - минимум температуры воздуха на высоте 2 м над землей.
  • Tmax - Максимальная температура - максимум температуры воздуха на высоте 2 м над землей.
  • R - Количество осадков - Количество выпавших осадков за период времени, мм. При наведении курсора мыши на число - период времени, за который выпало указанное количество осадков.
  • R24 - Количество осадков - Количество выпавших осадков за 24 часа, мм.
  • S - Снежный покров - Высота снежного покрова, см. При наведении курсора мыши на число - состояние снежного покрова и степень покрытия местности в баллах.